Regional Weather Roundup
Issued by NWS

Home | Current Version | Previous Version | Graphics & Text | Print | Product List | Glossary On
Versions: 1 2 3 4 5 6 7 8 9 10 11 12 13 14 15 16 17 18 19 20 21 22 23 24 25 26 27 28 29 30 31 32 33 34 35 36 37 38 39 40 41 42 43 44 45 46 47 48 49 50
000
ASUS43 KLMK 181002
RWRKY
KENTUCKY REGIONAL WEATHER ROUNDUP
NATIONAL WEATHER SERVICE LOUISVILLE KY
600 AM EDT WED OCT 18 2017

NOTE "FAIR" INDICATES FEW OR NO CLOUDS BELOW 12,000 FEET
WITH NO SIGNIFICANT WEATHER AND/OR OBSTRUCTIONS TO VISIBILITY.

KYZ001>023-026-027-061>063-070>075-181100-
WESTERN AND SOUTH CENTRAL KENTUCKY

CITY           SKY/WX    TMP DP  RH WIND       PRES   REMARKS
PADUCAH        CLEAR     42  39  89 CALM      30.23R
HENDERSON      CLEAR     40  39  97 CALM      30.26R
OWENSBORO      CLEAR     44  42  93 SE3       30.27R
HOPKINSVILLE   CLEAR     45  43  93 CALM      30.26R
BOWLING GREEN  CLEAR     39  38  96 CALM      30.28R
GLASGOW        NOT AVBL
$$

KYZ024-025-028>034-038-045-046-053-181100-
NORTH CENTRAL KENTUCKY

CITY           SKY/WX    TMP DP  RH WIND       PRES   REMARKS
LOUISVILLE/SDF PTCLDY    46  43  89 SE5       30.28R
LOUISVILLE/LOU CLEAR     43  42  97 CALM      30.29R
FORT KNOX      CLEAR     41  41  99 CALM      30.26R
$$

KYZ035>037-039>044-047>052-055>060-089>105-181100-
NORTHEAST KENTUCKY

CITY           SKY/WX    TMP DP  RH WIND       PRES   REMARKS
LEXINGTON      CLOUDY    41  37  86 SE5       30.29R
COVINGTON      CLEAR     46  41  82 E3        30.28R
FRANKFORT      CLEAR     39  35  86 CALM      30.28R
$$

KYZ054-064>069-076>088-106>120-181100-
SOUTHEAST KENTUCKY

CITY           SKY/WX    TMP DP  RH WIND       PRES   REMARKS
JACKSON        CLEAR     44  40  85 CALM      30.30R
LONDON         CLOUDY    39  37  92 CALM      30.30R
SOMERSET       NOT AVBL
MIDDLESBORO    FOG       39  39 100 CALM      30.34R VSB 1/4
MONTICELLO     SUNNY     36  36 100 NE9       30.32R WCI  29
$$





USA.gov is the U.S. government's official web portal to all federal, state and local government web resources and services.